• Join FlightAware (Why Join?)
  • Login
  • US Flag 
03:07AM EST


 

Airport Tracker/Info


-or-


 

Live Flight TrackerFlight Track Log ✈ N5FT ✈ 20-Aug-2014 ✈ KTME - KHQZ

Flight Track Log - Related Links

Times and Time Zones

All times are in EDT time to prevent confusion due to time zone crossing. See the N5FT flight status page for this flight to view local times or setup timezone preferences in your user account.

Time Position Orientation Groundspeed Altitude Reporting Facility
EDT Latitude Longitude Course Direction KTS MPH feet Rate Location/Type
11:39AM 29.8756 -95.8333 354° North 164 189 2,600  Level Houston Center
11:39AM 29.9072 -95.8369 354° North 160 184 2,700 436 Climbing Houston Center
11:40AM 29.9525 -95.8508 345° North 145 167 3,400 545 Climbing Houston Center
11:41AM 29.9592 -95.8528 346° North 157 181 3,500 716 Climbing Houston Center
11:42AM 29.9958 -95.8653 344° North 138 159 4,200 968 Climbing Houston Center
11:42AM 30.0039 -95.8664 353° North 143 165 4,500 885 Climbing Houston Center
11:43AM 30.0322 -95.8731 348° North 135 155 5,100 581 Climbing Houston Center
11:43AM 30.0400 -95.8753 346° North 133 153 5,100 107 Level Houston Center
11:43AM 30.0711 -95.8856 344° North 170 196 5,200 387 Climbing Houston Center
11:44AM 30.0850 -95.8864 357° North 156 180 5,500 787 Climbing Houston Center
11:45AM 30.1139 -95.8950 346° North 147 169 6,000 581 Climbing Houston Center
11:45AM 30.1261 -95.8956 358° North 157 181 6,100 600 Climbing Houston Center
11:46AM 30.1567 -95.9044 346° North 149 171 6,600 571 Climbing Houston Center
11:46AM 30.1681 -95.9039 North 155 178 6,700 448 Climbing Houston Center
11:47AM 30.2017 -95.9139 346° North 153 176 7,100 484 Climbing Houston Center
11:47AM 30.2178 -95.9156 355° North 152 175 7,200 441 Climbing Houston Center
11:48AM 30.2489 -95.9253 345° North 155 178 7,600 484 Climbing Houston Center
11:48AM 30.2600 -95.9258 358° North 153 176 7,700 857 Climbing Houston Center
11:49AM 30.2789 -95.9339 340° North 128 147 8,300 774 Climbing Houston Center
11:49AM 30.2969 -95.9361 354° North 144 166 8,500 295 Climbing Houston Center
11:50AM 30.3217 -95.9436 345° North 159 183 8,600 97 Climbing Houston Center
11:50AM 30.3397 -95.9447 357° North 149 171 8,600 98 Level Houston Center
11:51AM 30.3708 -95.9547 345° North 176 203 8,700 97 Climbing Houston Center
11:51AM 30.3881 -95.9567 354° North 169 194 8,700  Level Houston Center
11:52AM 30.4367 -95.9678 349° North 175 201 8,700 -48 Level Houston Center
11:53AM 30.4944 -95.9811 349° North 175 201 8,600 -96 Descending Houston Center
11:54AM 30.5428 -95.9925 349° North 177 204 8,500  Descending Houston Center
11:55AM 30.5914 -96.0047 348° North 177 204 8,600 48 Climbing Houston Center
11:56AM 30.6400 -96.0156 349° North 177 204 8,600  Level Houston Center
11:57AM 30.6939 -96.0292 348° North 177 204 8,600  Level Houston Center
11:58AM 30.7428 -96.0403 349° North 177 204 8,600  Level Houston Center
11:59AM 30.7903 -96.0533 347° North 177 204 8,600  Level Houston Center
12:00PM 30.8353 -96.0636 349° North 176 203 8,600  Level Houston Center
12:01PM 30.8931 -96.0778 348° North 176 203 8,600  Level Houston Center
12:03PM 30.9408 -96.0881 350° North 176 203 8,600  Level Houston Center
12:04PM 30.9886 -96.1006 347° North 176 203 8,600  Level Houston Center
12:05PM 31.0361 -96.1111 349° North 176 203 8,600  Level Houston Center
12:06PM 31.0836 -96.1231 348° North 176 203 8,600  Level Houston Center
12:07PM 31.1403 -96.1364 349° North 175 201 8,600  Level Houston Center
12:08PM 31.1878 -96.1481 348° North 175 201 8,600  Level Houston Center
12:09PM 31.2353 -96.1594 348° North 175 201 8,600  Level Houston Center
12:10PM 31.2833 -96.1714 348° North 175 201 8,600  Level Houston Center
12:11PM 31.3306 -96.1828 348° North 175 201 8,600  Level Houston Center
12:12PM 31.3881 -96.1961 349° North 175 201 8,600  Level Houston Center
12:13PM 31.4269 -96.2044 350° North 176 203 8,600  Level Fort Worth Center
12:14PM 31.4756 -96.2167 348° North 176 203 8,600  Level Fort Worth Center
12:15PM 31.5239 -96.2278 349° North 177 204 8,600  Level Fort Worth Center
12:16PM 31.5725 -96.2408 347° North 177 204 8,600  Level Fort Worth Center
12:17PM 31.6211 -96.2511 350° North 177 204 8,600  Level Fort Worth Center
12:18PM 31.6792 -96.2653 348° North 177 204 8,600  Level Fort Worth Center
12:19PM 31.7233 -96.2769 347° North 177 204 8,600  Level Fort Worth Center
12:20PM 31.7714 -96.2889 348° North 177 204 8,600  Level Fort Worth Center
12:21PM 31.8292 -96.3025 349° North 177 204 8,600  Level Fort Worth Center
12:22PM 31.8769 -96.3133 349° North 176 203 8,600  Level Fort Worth Center
12:23PM 31.9253 -96.3256 348° North 176 203 8,600  Level Fort Worth Center
12:24PM 31.9736 -96.3369 349° North 176 203 8,600  Level Fort Worth Center
12:25PM 32.0208 -96.3489 348° North 175 201 8,600  Level Fort Worth Center
12:26PM 32.0783 -96.3631 348° North 176 203 8,600 -194 Level Fort Worth Center
12:27PM 32.1261 -96.3756 348° North 175 201 8,200 -435 Descending Fort Worth Center
12:28PM 32.1764 -96.3867 349° North 179 206 7,700 -532 Descending Fort Worth Center
12:29PM 32.2281 -96.3986 349° North 181 208 7,100 -576 Descending Fort Worth Center
12:30PM 32.2819 -96.4128 347° North 183 211 6,500 -528 Descending Fort Worth Center
12:31PM 32.3317 -96.4258 347° North 183 211 6,000 -629 Descending Fort Worth Center
12:32PM 32.3853 -96.4386 349° North 183 211 5,200 -677 Descending Fort Worth Center
12:33PM 32.4317 -96.4578 341° North 178 205 4,600 -581 Descending Fort Worth Center
12:34PM 32.4842 -96.4639 354° North 177 204 4,000 -677 Descending Fort Worth Center
12:35PM 32.5286 -96.4789 344° North 169 194 3,200 -629 Descending Fort Worth Center
12:36PM 32.5767 -96.4889 350° North 165 190 2,700 -480 Descending Fort Worth Center
12:38PM 32.6211 -96.4978 350° North 165 190 2,200 -336 Descending Fort Worth Center
12:39PM 32.6678 -96.4967 North 160 184 2,000 -242 Descending Fort Worth Center
12:40PM 32.7114 -96.4997 357° North 159 183 1,700 -242 Descending Fort Worth Center
12:41PM 32.7525 -96.5089 349° North 150 173 1,500 -339 Descending Fort Worth Center
12:42PM 32.7722 -96.5300 318° Northwest 130 150 1,000 -387 Descending Fort Worth Center
12:43PM 32.7442 -96.5306 181° South 109 125 700 -290 Descending Fort Worth Center
12:45PM 32.7470 -96.5304 344° North  Level Estimated